Orange City, IA

7:43 PM CDT on April 22, 2018 (GMT -0500)
Orange City Municipal

Weather History for KORC - September, 2013

Change the Weather History Date:

Monday, September 23, 2013

  Actual Average Record
Temperature  
Mean Temperature 66 °F -  
Max Temperature 78 °F 70 °F 89 °F (2017)
Min Temperature 53 °F 47 °F 30 °F (2012)
Growing Degree Days 16 (Base 50)    
Moisture  
Dew Point 46 °F    
Average Humidity 53    
Maximum Humidity 77    
Minimum Humidity 26    
Precipitation  
Precipitation 0.00 in - - ()
Sea Level Pressure  
Sea Level Pressure 29.81 in    
Wind  
Wind Speed 10 mph (SSE)    
Max Wind Speed 20 mph    
Max Gust Speed 26 mph    
Visibility 10 miles    
Events Rain    
Averages and records for this station are not official NWS values.
T = Trace of Precipitation, MM = Missing Value Source: NWS Daily Summary

Daily Weather History Graph

Daily Weather History Graph

Search for Another Location

Airport or City:

Astronomy

Sep. 23, 2013 Rise Set
Actual Time 7:12 AM CDT 7:19 PM CDT
Civil Twilight 6:44 AM CDT 7:47 PM CDT
Nautical Twilight 6:11 AM CDT 8:20 PM CDT
Astronomical Twilight 5:37 AM CDT 8:54 PM CDT
Moon 9:45 PM CDT 11:40 AM CDT
Length of Visible Light 13h 02m
Length of Day
12h 06m
Waning Gibbous, 81% of the Moon is Illuminated
Sep 23
Waning Gibbous
Sep 26
Last Quarter
Oct 4
New
Oct 11
First Quarter
Oct 18
Full

Hourly Weather History & Observations

Time (CDT) Temp. Dew Point Humidity Pressure Visibility Wind Dir Wind Speed Gust Speed Precip Events Conditions
12:15 AM 60.8 °F 51.8 °F 72% 29.84 in 10.0 mi SSE 8.1 mph - N/A   Clear
12:35 AM 60.8 °F 50.0 °F 68% 29.84 in 10.0 mi SSE 9.2 mph - N/A   Clear
12:55 AM 59.0 °F 50.0 °F 72% 29.84 in 10.0 mi SSE 8.1 mph - N/A   Clear
1:15 AM 59.0 °F 50.0 °F 72% 29.83 in 10.0 mi SSE 9.2 mph - N/A   Clear
1:35 AM 59.0 °F 48.2 °F 67% 29.83 in 10.0 mi SSE 9.2 mph - N/A   Clear
1:55 AM 57.2 °F 48.2 °F 72% 29.83 in 10.0 mi SSE 8.1 mph - N/A   Clear
2:15 AM 57.2 °F 48.2 °F 72% 29.83 in 10.0 mi SSE 6.9 mph - N/A   Clear
2:35 AM 57.2 °F 48.2 °F 72% 29.83 in 10.0 mi SSE 6.9 mph - N/A   Clear
2:55 AM 57.2 °F 48.2 °F 72% 29.82 in 10.0 mi SSE 6.9 mph - N/A   Clear
3:15 AM 57.2 °F 48.2 °F 72% 29.81 in 10.0 mi SE 9.2 mph - N/A   Clear
3:35 AM 57.2 °F 48.2 °F 72% 29.81 in 10.0 mi SE 8.1 mph - N/A   Clear
3:55 AM 55.4 °F 46.4 °F 72% 29.81 in 10.0 mi SSE 8.1 mph - N/A   Clear
4:15 AM 55.4 °F 46.4 °F 72% 29.80 in 10.0 mi SSE 6.9 mph - N/A   Clear
4:35 AM 55.4 °F 46.4 °F 72% 29.81 in 10.0 mi SSE 9.2 mph - N/A   Clear
4:55 AM 55.4 °F 46.4 °F 72% 29.80 in 10.0 mi SSE 10.4 mph - N/A   Clear
5:15 AM 55.4 °F 46.4 °F 72% 29.80 in 10.0 mi SSE 10.4 mph - N/A   Clear
5:35 AM 55.4 °F 46.4 °F 72% 29.80 in 10.0 mi SSE 10.4 mph - N/A   Clear
5:55 AM 55.4 °F 46.4 °F 72% 29.80 in 10.0 mi SE 9.2 mph - N/A   Clear
6:15 AM 55.4 °F 46.4 °F 72% 29.80 in 10.0 mi SE 10.4 mph - N/A   Clear
6:35 AM 55.4 °F 46.4 °F 72% 29.81 in 10.0 mi SSE 9.2 mph - N/A   Clear
6:55 AM 55.4 °F 46.4 °F 72% 29.82 in 10.0 mi SSE 11.5 mph - N/A   Clear
7:15 AM 53.6 °F 46.4 °F 77% 29.83 in 10.0 mi SSE 8.1 mph - N/A   Clear
7:35 AM 53.6 °F 46.4 °F 77% 29.83 in 10.0 mi SSE 10.4 mph - N/A   Clear
7:55 AM 55.4 °F 46.4 °F 72% 29.83 in 10.0 mi SSE 10.4 mph - N/A   Clear
8:15 AM 55.4 °F 46.4 °F 72% 29.83 in 10.0 mi SSE 11.5 mph 16.1 mph N/A   Clear
8:35 AM 55.4 °F 46.4 °F 72% 29.83 in 10.0 mi SSE 10.4 mph 17.3 mph N/A   Clear
8:55 AM 57.2 °F 48.2 °F 72% 29.83 in 10.0 mi SSE 10.4 mph 17.3 mph N/A   Clear
9:15 AM 60.8 °F 48.2 °F 63% 29.83 in 10.0 mi SSE 11.5 mph 16.1 mph N/A   Clear
9:35 AM 62.6 °F 48.2 °F 59% 29.82 in 10.0 mi SSE 11.5 mph 16.1 mph N/A   Clear
9:55 AM 64.4 °F 48.2 °F 56% 29.82 in 10.0 mi South 16.1 mph 21.9 mph N/A   Clear
10:15 AM 64.4 °F 48.2 °F 56% 29.82 in 10.0 mi SSE 15.0 mph 25.3 mph N/A   Clear
10:35 AM 66.2 °F 48.2 °F 52% 29.82 in 10.0 mi SSE 17.3 mph 25.3 mph N/A   Clear
10:55 AM 69.8 °F 48.2 °F 46% 29.82 in 10.0 mi South 17.3 mph 23.0 mph N/A   Clear
11:15 AM 69.8 °F 46.4 °F 43% 29.81 in 10.0 mi South 15.0 mph 24.2 mph N/A   Clear
11:35 AM 71.6 °F 46.4 °F 41% 29.81 in 10.0 mi SSE 18.4 mph 25.3 mph N/A   Clear
11:55 AM 73.4 °F 46.4 °F 38% 29.81 in 10.0 mi South 18.4 mph 25.3 mph N/A   Clear
12:15 PM 73.4 °F 46.4 °F 38% 29.81 in 10.0 mi South 16.1 mph 25.3 mph N/A   Clear
12:35 PM 75.2 °F 46.4 °F 36% 29.80 in 10.0 mi South 15.0 mph 26.5 mph N/A   Clear
12:55 PM 75.2 °F 44.6 °F 34% 29.79 in 10.0 mi South 19.6 mph 26.5 mph N/A   Clear
1:15 PM 75.2 °F 44.6 °F 34% 29.78 in 10.0 mi South 17.3 mph 25.3 mph N/A   Clear
1:35 PM 75.2 °F 44.6 °F 34% 29.78 in 10.0 mi SSE 18.4 mph 23.0 mph N/A   Clear
1:55 PM 77.0 °F 44.6 °F 32% 29.77 in 10.0 mi SSE 15.0 mph 24.2 mph N/A   Clear
2:15 PM 77.0 °F 44.6 °F 32% 29.76 in 10.0 mi SSE 17.3 mph 26.5 mph N/A   Clear
2:35 PM 78.8 °F 42.8 °F 28% 29.76 in 10.0 mi South 18.4 mph 25.3 mph N/A   Clear
2:55 PM 78.8 °F 42.8 °F 28% 29.76 in 10.0 mi SSE 15.0 mph 26.5 mph N/A   Clear
3:15 PM 78.8 °F 42.8 °F 28% 29.76 in 10.0 mi SSE 16.1 mph 25.3 mph N/A   Clear
3:35 PM 78.8 °F 41.0 °F 26% 29.76 in 10.0 mi SSE 17.3 mph 24.2 mph N/A   Clear
3:55 PM 78.8 °F 42.8 °F 28% 29.76 in 10.0 mi South 17.3 mph 23.0 mph N/A   Clear
4:15 PM 78.8 °F 41.0 °F 26% 29.77 in 10.0 mi South 17.3 mph 23.0 mph N/A   Clear
4:35 PM 78.8 °F 42.8 °F 28% 29.77 in 10.0 mi SSE 12.7 mph 24.2 mph N/A   Clear
4:55 PM 78.8 °F 42.8 °F 28% 29.76 in 10.0 mi SSE 13.8 mph 20.7 mph N/A   Clear
5:15 PM 78.8 °F 44.6 °F 30% 29.76 in 10.0 mi SE 9.2 mph - N/A   Clear
5:35 PM 78.8 °F 44.6 °F 30% 29.77 in 10.0 mi SSE 11.5 mph 23.0 mph N/A   Clear
5:55 PM 77.0 °F 42.8 °F 29% 29.78 in 10.0 mi South 13.8 mph 19.6 mph N/A   Clear
6:15 PM 75.2 °F 44.6 °F 34% 29.78 in 10.0 mi SSE 10.4 mph 16.1 mph N/A   Clear
6:35 PM 73.4 °F 46.4 °F 38% 29.79 in 10.0 mi SSE 8.1 mph - N/A   Clear
6:55 PM 73.4 °F 44.6 °F 36% 29.79 in 10.0 mi SSE 9.2 mph - N/A   Clear
7:15 PM 71.6 °F 46.4 °F 41% 29.79 in 10.0 mi SE 5.8 mph - N/A   Clear
7:35 PM 69.8 °F 46.4 °F 43% 29.80 in 10.0 mi SE 5.8 mph - N/A   Clear
7:55 PM 66.2 °F 46.4 °F 49% 29.79 in 10.0 mi ESE 5.8 mph - N/A   Clear
8:15 PM 66.2 °F 48.2 °F 52% 29.79 in 10.0 mi ESE 8.1 mph - N/A   Clear
8:35 PM 66.2 °F 48.2 °F 52% 29.80 in 10.0 mi ESE 6.9 mph - N/A   Clear
8:55 PM 66.2 °F 46.4 °F 49% 29.81 in 10.0 mi ESE 6.9 mph - N/A   Clear
9:15 PM 66.2 °F 46.4 °F 49% 29.81 in 10.0 mi SE 8.1 mph - N/A   Clear
9:35 PM 64.4 °F 46.4 °F 52% 29.82 in 10.0 mi ESE 6.9 mph - N/A   Clear
9:55 PM 64.4 °F 46.4 °F 52% 29.82 in 10.0 mi ESE 6.9 mph - N/A   Clear
10:15 PM 64.4 °F 46.4 °F 52% 29.83 in 10.0 mi ESE 8.1 mph - N/A   Light Drizzle
10:35 PM 64.4 °F 48.2 °F 56% 29.83 in 10.0 mi SE 6.9 mph - N/A   Scattered Clouds
10:55 PM 64.4 °F 46.4 °F 52% 29.84 in 10.0 mi SE 5.8 mph - N/A   Scattered Clouds
11:15 PM 64.4 °F 48.2 °F 56% 29.84 in 10.0 mi ESE 8.1 mph - N/A   Scattered Clouds
11:35 PM 64.4 °F 48.2 °F 56% 29.84 in 10.0 mi SE 8.1 mph - N/A Rain Light Rain
11:55 PM 64.4 °F 50.0 °F 59% 29.84 in 10.0 mi SE 6.9 mph - N/A Rain Light Rain